Tracking 30106 objects as of 23-Jan-2025
HD Live streaming from Space Station
objects crossing your sky now

CZ-2C DEB

Track CZ-2C DEB now!
10-day predictions


NORAD ID: 40263
Int'l Code: 2014-059C
Perigee: 601.3 km
Apogee: 705.6 km
Inclination: 98.2 °
Period: 97.7 minutes
Semi major axis: 7024 km
RCS: Unknown
Launch date: September 28, 2014
Source: People's Republic of China (PRC)
Launch site: Jiuquan Satellite Launch Center, China (JSC)

Note: This is SATELLITE DEBRIS
Your satellite tracking list
Your tracking list is empty




NASA's NSSDC Master Catalog

Two Line Element Set (TLE):
1 40263U 14059C   25023.47240354  .00025899  00000-0  37090-2 0  9999
2 40263  98.1914 118.8808 0074240 132.1245 228.6305 14.74642082547503
Source of the keplerian elements: AFSPC